Weather History for KTPH - October, 2012

Change the Weather History Date:

Thursday, October 11, 2012

  Actual Average Record
Temperature  
Mean Temperature 50 °F 55 °F  
Max Temperature 57 °F 70 °F 83 °F (1965)
Min Temperature 43 °F 39 °F 26 °F (2008)
Degree Days  
Heating Degree Days 15 10  
Month to date heating degree days 43 93  
Since 1 July heating degree days 47 184  
Cooling Degree Days 0 0  
Month to date cooling degree days 7 0  
Year to date cooling degree days 1004 781  
Moisture  
Dew Point 45 °F    
Average Humidity 77    
Maximum Humidity 93    
Minimum Humidity 61    
Precipitation  
Precipitation 0.83 in 0.01 in 0.83 in (2012)
Month to date precipitation 0.93 0.12  
Year to date precipitation 5.75 4.27  
Sea Level Pressure  
Sea Level Pressure 29.94 in    
Wind  
Wind Speed 7 mph (ESE)    
Max Wind Speed 21 mph    
Max Gust Speed 24 mph    
Visibility 9 miles    
Events Rain , Thunderstorm    
T = Trace of Precipitation, MM = Missing Value Source: NWS Daily Summary

Daily Weather History Graph

Daily Weather History Graph

Search for Another Location

Airport or City:

Trip Planner

Search our weather history database for the weather conditions in past years. The results will help you decide how hot, cold, wet, or windy it might be!

Date:

Astronomy

Oct. 11, 2012 Rise Set
Actual Time 6:53 AM PDT 6:15 PM PDT
Civil Twilight 6:27 AM PDT 6:41 PM PDT
Nautical Twilight 5:56 AM PDT 7:12 PM PDT
Astronomical Twilight 5:26 AM PDT 7:42 PM PDT
Moon 2:40 AM PDT (10/11) 3:51 PM PDT (10/11)
Length of Visible Light 12h 14m
Length of Day
11h 21m
Waning Crescent, 17% of the Moon is Illuminated
Oct 11
Waning Crescent
Oct 15
New
Oct 21
First Quarter
Oct 29
Full
Nov 6
Last Quarter

Hourly Weather History & Observations

Time (PDT) Temp. Windchill Dew Point Humidity Pressure Visibility Wind Dir Wind Speed Gust Speed Precip Events Conditions
12:56 AM 48.9 °F - 45.0 °F 86% 29.87 in 10.0 mi North 4.6 mph - N/A   Clear
1:56 AM 48.0 °F - 44.1 °F 86% 29.88 in 10.0 mi North 6.9 mph - N/A   Clear
2:56 AM 48.9 °F - 45.0 °F 86% 29.86 in 10.0 mi NNE 3.5 mph - N/A Thunderstorm Mostly Cloudy
3:10 AM 48.2 °F - 46.4 °F 93% 29.99 in 8.0 mi Calm Calm - 0.02 in Rain Rain
3:56 AM 48.9 °F - 45.0 °F 86% 29.87 in 10.0 mi North 5.8 mph - 0.09 in   Mostly Cloudy
5:56 AM 50.0 °F - 46.9 °F 89% 29.87 in 5.0 mi Calm Calm - 0.07 in Rain Rain
6:07 AM 50.0 °F - 46.4 °F 87% 29.99 in 6.0 mi SE 3.5 mph - 0.04 in Rain Rain
6:27 AM 48.2 °F - 46.4 °F 93% 29.99 in 6.0 mi SSW 15.0 mph 19.6 mph 0.11 in Rain Rain
6:54 AM 46.4 °F 42.9 °F 44.6 °F 93% 29.99 in 5.0 mi SW 6.9 mph - 0.19 in Rain Rain
6:56 AM 46.9 °F - 45.0 °F 93% 29.89 in 6.0 mi SW 5.8 mph - 0.19 in Rain Rain
7:26 AM 46.4 °F - 44.6 °F 93% 29.99 in 6.0 mi Calm Calm - 0.04 in Rain Rain
7:56 AM 46.9 °F - 44.1 °F 90% 29.91 in 10.0 mi Calm Calm - 0.07 in Rain Light Rain
8:22 AM 46.4 °F 42.4 °F 44.6 °F 93% 30.00 in 9.0 mi East 8.1 mph - 0.03 in Rain Light Rain
8:56 AM 46.9 °F - 45.0 °F 93% 29.92 in 10.0 mi NE 4.6 mph - 0.05 in Rain Rain
9:06 AM 48.2 °F - 44.6 °F 87% 30.01 in 10.0 mi ENE 5.8 mph - 0.01 in Rain Light Rain
9:35 AM 48.2 °F - 46.4 °F 93% 30.00 in 10.0 mi ESE 10.4 mph - 0.03 in Rain Light Rain
9:56 AM 48.9 °F - 46.9 °F 93% 29.92 in 10.0 mi SE 8.1 mph - 0.03 in   Overcast
10:20 AM 50.0 °F - 46.4 °F 87% 30.01 in 10.0 mi SE 9.2 mph - 0.00 in   Overcast
10:47 AM 50.0 °F - 46.4 °F 87% 30.01 in 10.0 mi South 6.9 mph - 0.00 in Rain Light Rain
10:56 AM 50.0 °F - 46.9 °F 89% 29.92 in 9.0 mi SSE 6.9 mph - 0.00 in Rain Light Rain
11:56 AM 52.0 °F - 48.9 °F 89% 29.91 in 10.0 mi ESE 11.5 mph - 0.02 in Rain Light Rain
12:56 PM 52.0 °F - 46.0 °F 80% 29.91 in 10.0 mi ESE 15.0 mph - 0.00 in Rain Light Rain
1:56 PM 55.0 °F - 44.1 °F 67% 29.87 in 10.0 mi East 8.1 mph - 0.01 in   Mostly Cloudy
2:56 PM 55.9 °F - 42.1 °F 60% 29.86 in 10.0 mi ESE 6.9 mph - N/A   Overcast
4:26 PM 51.8 °F - 44.6 °F 76% 29.95 in 10.0 mi SSE 9.2 mph 16.1 mph 0.00 in Rain , Thunderstorm Light Rain
4:41 PM 50.0 °F - 44.6 °F 82% 29.96 in 8.0 mi South 5.8 mph - 0.01 in Rain Light Rain
4:56 PM 50.0 °F - 44.1 °F 80% 29.88 in 6.0 mi South 10.4 mph - 0.05 in Rain Light Rain
5:14 PM 46.4 °F 41.9 °F 44.6 °F 93% 29.97 in 2.5 mi South 9.2 mph - 0.06 in Rain Rain
5:22 PM 46.4 °F 43.5 °F 44.6 °F 93% 29.98 in 6.0 mi SSE 5.8 mph - 0.06 in Rain Light Rain
6:56 PM 46.0 °F 41.4 °F 43.0 °F 89% 29.92 in 10.0 mi ESE 9.2 mph - 0.07 in Rain Light Rain
7:06 PM 46.4 °F 41.5 °F 42.8 °F 87% 30.00 in 10.0 mi ESE 10.4 mph - 0.01 in Rain Light Rain
7:56 PM 45.0 °F 41.8 °F 42.1 °F 90% 29.94 in 10.0 mi East 5.8 mph - 0.07 in Rain Light Rain
9:56 PM 45.0 °F 40.6 °F 41.0 °F 86% 29.93 in 10.0 mi East 8.1 mph - 0.01 in   Overcast
10:56 PM 46.0 °F 42.5 °F 42.1 °F 86% 29.92 in 10.0 mi NNE 6.9 mph - N/A   Overcast
11:56 PM 45.0 °F 43.5 °F 41.0 °F 86% 29.94 in 10.0 mi South 3.5 mph - N/A   Mostly Cloudy